[[{"header":{"parameterUnit":"m.s-1","parameterCategory":1,"la1":30.2991,"la2":30.254,"lo1":-89.0895,"lo2":-89.0444,"dx":0.0017,"dy":0.0017,"nx":28,"ny":28,"refTime":"2022-11-05T21:00:00:Z","depth":0,"parameterNumber":2,"parameterNumberName":"U-component_of_WINDS"},"data":[0,0,0,0,0,0,0,0,0,0,0,0,0,0,0,0,0,0,0,0,0,0,0,0,0,0,0,0,0,0,0,0,0,0,0,0,0,0,0,0,0,0,0,0,0,0,0,0,0,0,0,0,0,0,0,0,0,0,-1.6306,-1.6306,0,-1.6316,-1.6316,-1.6316,-1.6255,-1.6253,-1.6252,-1.625,-1.6263,-1.6265,-1.6267,0,0,0,0,0,0,0,0,0,0,0,0,0,-1.6236,-1.6237,-1.6306,-1.6306,-1.6306,-1.6316,-1.6316,-1.6316,-1.6255,-1.6253,-1.6251,-1.6249,-1.6262,-1.6264,-1.6267,0,0,0,0,0,0,0,0,0,0,0,0,0,-1.6258,-1.6238,-1.6306,-1.6277,-1.6274,-1.6316,-1.6316,-1.6316,-1.6256,-1.6253,-1.6251,-1.6248,-1.6261,-1.6264,-1.6267,-1.6338,0,0,-1.6276,-1.6277,0,0,0,0,0,0,0,0,-1.6257,-1.6261,-1.6281,-1.6279,-1.6276,-1.6282,-1.6296,-1.6324,-1.6257,-1.6263,-1.625,-1.6247,-1.6271,-1.6273,-1.6281,-1.6338,-1.6339,-1.6276,-1.6278,-1.6279,-1.628,0,0,0,0,0,0,0,-1.6256,-1.626,-1.631,-1.6281,-1.6278,-1.6264,-1.6264,-1.6301,-1.6282,-1.6262,-1.6258,-1.626,-1.6269,-1.6278,-1.6281,-1.6339,-1.6276,-1.6279,-1.6281,-1.6282,-1.6457,-1.6459,0,0,0,0,0,0,-1.6258,-1.6259,-1.631,-1.631,-1.626,-1.6268,-1.6268,-1.6283,-1.6281,-1.6278,-1.6262,-1.6257,-1.6275,-1.6277,-1.6281,-1.6365,-1.6279,-1.6282,-1.6284,-1.6454,-1.6457,-1.646,0,0,0,0,0,0,-1.6256,-1.6263,-1.6309,-1.6284,-1.6288,-1.6271,-1.6289,-1.6284,-1.6293,-1.6281,-1.6277,-1.6274,-1.6273,-1.6277,-1.6324,-1.6365,-1.6283,-1.6286,-1.6451,-1.6455,-1.6459,-1.6534,0,0,0,0,0,0,-1.6255,-1.6263,-1.6289,-1.6285,-1.629,-1.6352,-1.6291,-1.6286,-1.6298,-1.6291,-1.6292,-1.6289,-1.6271,-1.632,-1.6327,-1.6367,-1.6288,-1.6447,-1.6452,-1.6458,-1.6528,-1.654,-1.6551,0,0,0,0,0,-1.6252,-1.631,-1.629,-1.6297,-1.6322,-1.6354,-1.6358,-1.6335,-1.6301,-1.6328,-1.6321,-1.6289,-1.6359,-1.6326,-1.6333,-1.6375,-1.6444,-1.6451,-1.6457,-1.6522,-1.6538,-1.655,0,0,0,0,0,0,-1.632,-1.6309,-1.6287,-1.6345,-1.6351,-1.6344,-1.6377,-1.6351,-1.6368,-1.6361,-1.6332,-1.6333,-1.6386,-1.6384,-1.6348,-1.6444,-1.6396,-1.6404,-1.6443,-1.6457,-1.6469,-1.6469,-1.6291,0,0,0,0,0,-1.6341,-1.6367,-1.6356,-1.6408,-1.6412,-1.6394,-1.6407,-1.6389,-1.6395,-1.6397,-1.6393,-1.64,-1.6424,-1.644,-1.6461,-1.6526,-1.6527,-1.6559,-1.657,-1.658,-1.6588,-1.6624,-1.6639,-1.6482,-1.6482,-1.6482,0,0,-1.6386,-1.6383,-1.6402,-1.6422,-1.6424,-1.6453,-1.6397,-1.643,-1.6451,-1.6402,-1.6447,-1.6445,-1.6451,-1.6508,-1.6533,-1.6509,-1.6631,-1.6588,-1.6596,-1.6599,-1.6632,-1.6647,-1.6661,-1.6486,-1.6485,-1.6485,0,0,-1.6483,-1.6483,-1.6526,-1.653,-1.6535,-1.6522,-1.6533,-1.653,-1.6526,-1.6571,-1.6535,-1.656,-1.6601,-1.6607,-1.6616,-1.6716,-1.6688,-1.6723,-1.6784,-1.682,-1.6833,-1.6843,-1.6881,-1.6895,-1.6731,-1.6731,-1.6731,0,-1.6539,-1.658,-1.6552,-1.6588,-1.6599,-1.6555,-1.66,-1.6605,-1.6616,-1.6625,-1.6597,-1.6648,-1.6649,-1.6708,-1.6733,-1.674,-1.6753,-1.6724,-1.6833,-1.6843,-1.6853,-1.6889,-1.6903,-1.6735,-1.6735,-1.6734,-1.6734,0,-1.6649,-1.6678,-1.6713,-1.6725,-1.6739,-1.678,-1.6759,-1.6777,-1.6757,-1.6748,-1.6795,-1.6794,-1.6815,-1.6827,-1.6808,-1.6884,-1.6869,-1.6837,-1.6789,-1.6873,-1.6906,-1.6919,-1.6742,-1.674,-1.6739,-1.6738,0,0,-1.679,-1.6786,-1.68,-1.6805,-1.6807,-1.683,-1.6868,-1.6887,-1.6904,-1.6913,-1.6946,-1.6982,-1.6953,-1.6963,-1.6944,-1.6975,-1.7056,-1.694,-1.6939,-1.6963,-1.7142,-1.7168,-1.7184,-1.7037,-1.704,-1.7042,-1.7142,0,-1.6887,-1.6952,-1.6928,-1.6995,-1.7023,-1.6981,-1.7015,-1.7021,-1.7013,-1.7036,-1.7027,-1.7054,-1.7013,-1.7019,-1.7047,-1.704,-1.7092,-1.7032,-1.7069,-1.7071,-1.7071,-1.72,-1.7227,-1.7322,-1.7155,-1.7157,-1.7158,0,-1.7008,-1.7022,-1.7092,-1.709,-1.7101,-1.7131,-1.7148,-1.717,-1.7175,-1.7168,-1.7179,-1.7154,-1.7192,-1.7143,-1.7196,-1.7156,-1.717,-1.7169,-1.7172,-1.7176,-1.7121,-1.7211,-1.7352,-1.7367,-1.7178,-1.7176,-1.7175,0,-1.7107,-1.7143,-1.719,-1.7195,-1.7193,-1.7216,-1.7217,-1.7219,-1.7233,-1.7248,-1.7257,-1.7276,-1.7287,-1.7302,-1.7284,-1.7249,-1.7341,-1.7289,-1.7338,-1.7338,-1.7361,-1.736,-1.7509,-1.7366,-1.7366,-1.7365,-1.7365,0,-1.7219,-1.7264,-1.7234,-1.7264,-1.7313,-1.7285,-1.7335,-1.7331,-1.7334,-1.7362,-1.7327,-1.7355,-1.7327,-1.7352,-1.7338,-1.7386,-1.739,-1.7386,-1.7383,-1.7391,-1.7392,-1.7401,-1.7395,-1.7369,-1.7368,-1.7367,-1.7367,0,-1.7338,-1.732,-1.7369,-1.7363,-1.7362,-1.7399,-1.7395,-1.7422,-1.7411,-1.7448,-1.7455,-1.7439,-1.7467,-1.7449,-1.7477,-1.7467,-1.7531,-1.7517,-1.7529,-1.7526,-1.7577,-1.7573,-1.7738,-1.7759,-1.7601,-1.7602,-1.7604,0,-1.7412,-1.7446,-1.7443,-1.7459,-1.7462,-1.7488,-1.7502,-1.7476,-1.7492,-1.7501,-1.7527,-1.7552,-1.7571,-1.7618,-1.7609,-1.7631,-1.7619,-1.7675,-1.7622,-1.763,-1.7622,-1.7622,-1.7626,-1.7687,-1.7688,-1.769,-1.7691,0,-1.7545,-1.7535,-1.7555,-1.7573,-1.759,-1.7603,-1.7614,-1.7629,-1.7603,-1.7623,-1.7651,-1.7665,-1.7694,-1.772,-1.7738,-1.7739,-1.7712,-1.7707,-1.772,-1.7731,-1.7738,-1.7737,-1.7561,-1.7704,-1.7703,-1.7702,-1.7701,-1.7701,-1.7646,-1.7674,-1.7677,-1.7702,-1.7706,-1.7717,-1.7742,-1.7735,-1.7757,-1.7779,-1.7762,-1.7796,-1.7801,-1.7823,-1.7828,-1.7854,-1.7832,-1.785,-1.7855,-1.786,-1.7868,-1.7731,-1.7857,-1.7857,-1.7857,-1.7856,-1.7856,0,-1.7779,-1.7779,-1.7802,-1.7817,-1.7836,-1.7807,-1.7817,-1.7836,-1.7866,-1.7872,-1.7891,-1.7924,-1.7949,-1.7942,-1.7965,-1.7988,-1.7976,-1.7995,-1.7994,-1.7996,-1.7886,-1.7874,-1.8004,-1.8004,-1.8004,-1.8004,-1.8004,-1.8004,-1.7851,-1.7899,-1.7888,-1.7938,-1.7937,-1.797,-1.7978,-1.7988,-1.7993,-1.8031,-1.8052,-1.8047,-1.8049,-1.8071,-1.8093,-1.809,-1.8102,-1.8126,-1.8119,-1.8018,-1.8003,-1.7989,-1.7978,-1.8128,-1.8128,-1.8226,-1.8227,-1.8228]},{"header":{"parameterUnit":"m.s-1","parameterCategory":1,"la1":30.2991,"la2":30.254,"lo1":-89.0895,"lo2":-89.0444,"dx":0.0017,"dy":0.0017,"nx":28,"ny":28,"refTime":"2022-11-05T21:00:00:Z","depth":0,"parameterNumber":3,"parameterNumberName":"V-component_of_WINDS"},"data":[0,0,0,0,0,0,0,0,0,0,0,0,0,0,0,0,0,0,0,0,0,0,0,0,0,0,0,0,0,0,0,0,0,0,0,0,0,0,0,0,0,0,0,0,0,0,0,0,0,0,0,0,0,0,0,0,0,0,0.1957,0.1957,0,0.1902,0.1901,0.1901,0.1877,0.1877,0.1877,0.1877,0.1819,0.1818,0.1816,0,0,0,0,0,0,0,0,0,0,0,0,0,0.2041,0.204,0.1957,0.1957,0.1956,0.1902,0.1901,0.1901,0.1877,0.1877,0.1877,0.1877,0.182,0.1818,0.1816,0,0,0,0,0,0,0,0,0,0,0,0,0,0.1997,0.2039,0.1957,0.1938,0.1935,0.1902,0.1901,0.19,0.1877,0.1877,0.1877,0.1877,0.1821,0.1818,0.1816,0.1798,0,0,0.1808,0.1807,0,0,0,0,0,0,0,0,0.2,0.1994,0.1941,0.1939,0.1936,0.1897,0.191,0.1866,0.1877,0.1899,0.1877,0.1877,0.1845,0.1841,0.183,0.1795,0.1793,0.1808,0.1807,0.1806,0.1805,0,0,0,0,0,0,0,0.2003,0.1997,0.1935,0.194,0.1937,0.1931,0.1925,0.1901,0.1872,0.1897,0.1895,0.1889,0.1844,0.1832,0.1828,0.1792,0.1808,0.1806,0.1805,0.1804,0.1741,0.174,0,0,0,0,0,0,0.2009,0.1999,0.1937,0.1934,0.1969,0.193,0.1923,0.1909,0.1872,0.1867,0.1889,0.1888,0.1836,0.1831,0.1826,0.1803,0.1806,0.1803,0.1802,0.1741,0.1741,0.174,0,0,0,0,0,0,0.2011,0.2004,0.1939,0.1966,0.1957,0.1928,0.1913,0.1908,0.1897,0.1866,0.1861,0.1883,0.1836,0.183,0.1805,0.1801,0.1802,0.18,0.1741,0.1741,0.174,0.1757,0,0,0,0,0,0,0.2014,0.2005,0.1998,0.1966,0.1956,0.192,0.1913,0.1907,0.1893,0.1891,0.1859,0.1854,0.1836,0.1809,0.1803,0.1797,0.1798,0.1741,0.1741,0.174,0.1756,0.1757,0.1757,0,0,0,0,0,0.2017,0.2004,0.1998,0.199,0.1947,0.192,0.1914,0.1894,0.1892,0.1885,0.1866,0.1855,0.1802,0.1807,0.18,0.1793,0.1741,0.1741,0.1741,0.1756,0.1757,0.1757,0,0,0,0,0,0,0.2036,0.2,0.1992,0.1969,0.1948,0.1916,0.1906,0.1895,0.1874,0.1873,0.1849,0.1842,0.182,0.1804,0.181,0.1774,0.1771,0.1769,0.1785,0.1786,0.1786,0.179,0.1796,0,0,0,0,0,0.2038,0.2019,0.1988,0.1971,0.1961,0.1935,0.1923,0.1909,0.1886,0.1877,0.1855,0.1833,0.1811,0.1798,0.1776,0.1754,0.1747,0.1746,0.1747,0.1747,0.1746,0.1733,0.1732,0.1739,0.1739,0.1739,0,0,0.2041,0.2019,0.2008,0.1974,0.1956,0.1937,0.1928,0.1908,0.1893,0.1873,0.1849,0.1833,0.1807,0.1783,0.1772,0.177,0.1742,0.1747,0.1747,0.1745,0.1732,0.1732,0.1731,0.1738,0.1738,0.1738,0,0,0.2036,0.2018,0.2001,0.1984,0.1956,0.194,0.1936,0.1906,0.1894,0.187,0.1855,0.1837,0.1801,0.1782,0.1768,0.1758,0.1747,0.1752,0.1754,0.1742,0.1741,0.1741,0.1737,0.1736,0.175,0.175,0.175,0,0.2043,0.2014,0.1994,0.1975,0.1961,0.1943,0.1926,0.1909,0.1876,0.1867,0.1865,0.1819,0.18,0.1772,0.177,0.1759,0.1754,0.1755,0.1743,0.1742,0.1741,0.1738,0.1736,0.1751,0.1751,0.1751,0.1751,0,0.2024,0.2004,0.1994,0.1964,0.1948,0.193,0.1907,0.1894,0.1882,0.1866,0.1841,0.1818,0.1791,0.1784,0.1772,0.1755,0.1754,0.1748,0.1744,0.1742,0.1738,0.1736,0.1752,0.1752,0.1751,0.1751,0,0,0.2029,0.1989,0.1985,0.1971,0.194,0.1924,0.1906,0.1881,0.187,0.1848,0.1832,0.1802,0.1796,0.178,0.1766,0.1755,0.1749,0.175,0.1749,0.1751,0.1728,0.1733,0.1732,0.1742,0.1741,0.1741,0.173,0,0.2021,0.1987,0.1969,0.1943,0.1924,0.1907,0.1891,0.187,0.1855,0.1836,0.1819,0.1798,0.1792,0.1782,0.1771,0.1752,0.1744,0.1752,0.1726,0.1725,0.1733,0.1729,0.1734,0.1725,0.1729,0.1728,0.1728,0,0.2006,0.1985,0.1957,0.1929,0.1921,0.1906,0.1882,0.1865,0.1841,0.183,0.1813,0.1799,0.1779,0.1777,0.1749,0.1755,0.1743,0.1732,0.1731,0.1728,0.1726,0.1726,0.1722,0.1721,0.1726,0.1726,0.1726,0,0.2013,0.1978,0.1957,0.1945,0.1912,0.1902,0.1888,0.1864,0.185,0.1829,0.1819,0.1796,0.1783,0.1765,0.1745,0.1745,0.1719,0.1715,0.1709,0.1709,0.1703,0.1704,0.1698,0.1696,0.1696,0.1697,0.1697,0,0.2005,0.1989,0.1959,0.1946,0.1928,0.1907,0.1889,0.1873,0.1852,0.1835,0.1819,0.1804,0.1779,0.1761,0.1745,0.1724,0.1718,0.1709,0.1705,0.171,0.1711,0.1702,0.1702,0.1696,0.1696,0.1696,0.1696,0,0.2009,0.1989,0.1965,0.1935,0.1927,0.1915,0.189,0.1876,0.186,0.1839,0.1833,0.1808,0.1785,0.1764,0.1734,0.1723,0.1702,0.1697,0.171,0.1708,0.1703,0.1704,0.169,0.1687,0.1688,0.1688,0.1688,0,0.2005,0.1992,0.1962,0.195,0.1936,0.1917,0.1903,0.1882,0.1868,0.184,0.183,0.1807,0.1787,0.1752,0.173,0.1707,0.1701,0.1698,0.1697,0.1703,0.1701,0.1702,0.17,0.1698,0.1698,0.1698,0.1699,0,0.2001,0.1991,0.1972,0.1949,0.1933,0.1914,0.1894,0.1885,0.186,0.1845,0.1823,0.1807,0.1777,0.1754,0.1728,0.1713,0.1702,0.1699,0.1696,0.1701,0.171,0.1705,0.1711,0.1699,0.1699,0.1699,0.1699,0.1699,0.2,0.1988,0.1965,0.1944,0.1927,0.1909,0.1895,0.1878,0.1858,0.1832,0.1821,0.1798,0.1775,0.174,0.1725,0.1706,0.1704,0.17,0.1699,0.1698,0.1699,0.1713,0.1702,0.1702,0.1702,0.1702,0.1701,0,0.1995,0.1979,0.196,0.1933,0.1917,0.1908,0.1886,0.1873,0.1853,0.1832,0.1813,0.1787,0.1765,0.1742,0.1718,0.1708,0.1702,0.1702,0.1703,0.1699,0.1703,0.1708,0.1708,0.1708,0.1708,0.1708,0.1708,0.1708,0.199,0.1969,0.1957,0.1928,0.1912,0.189,0.1878,0.1861,0.1845,0.1817,0.1798,0.1784,0.1762,0.1737,0.1716,0.171,0.1702,0.1704,0.1696,0.1699,0.1699,0.1699,0.1703,0.1702,0.1702,0.1694,0.1694,0.1694]}]]